Time,TemperatureF,DewpointF,PressureIn,WindDirection,WindDirectionDegrees,WindSpeedMPH,WindSpeedGustMPH,Humidity,HourlyPrecipIn,Conditions,Clouds,dailyrainin,SoftwareType,DateUTC
2013-09-28 01:42:00,69.0,-99.9,-100.00,NE,34,5.0,6.0,-999,-99.99,,,-99.99,,2013-09-28 07:42:00,
2013-09-28 01:50:00,67.0,-99.9,-100.00,NNE,22,4.0,7.0,-999,-99.99,,,-99.99,,2013-09-28 07:50:00,
2013-09-28 02:43:00,67.0,-99.9,-100.00,NNE,22,4.0,7.0,-999,-99.99,,,-99.99,,2013-09-28 08:43:00,
2013-09-28 03:10:00,65.0,-99.9,-100.00,NNE,22,3.0,5.0,-999,-99.99,,,-99.99,,2013-09-28 09:10:00,
2013-09-28 03:43:00,66.0,-99.9,-100.00,North,7,3.0,5.0,-999,-99.99,,,-99.99,,2013-09-28 09:43:00,
2013-09-28 03:54:00,65.0,-99.9,-100.00,NNE,22,3.0,5.0,-999,-99.99,,,-99.99,,2013-09-28 09:54:00,
2013-09-28 04:03:00,65.0,-99.9,-100.00,NNE,22,3.0,5.0,-999,-99.99,,,-99.99,,2013-09-28 10:03:00,
2013-09-28 05:50:00,63.0,-99.9,-100.00,NNE,24,4.0,8.0,-999,-99.99,,,-99.99,,2013-09-28 11:50:00,
2013-09-28 05:52:00,64.0,-99.9,-100.00,North,357,3.0,5.0,-999,-99.99,,,-99.99,,2013-09-28 11:52:00,
2013-09-28 06:12:00,64.0,-99.9,-100.00,North,2,2.0,5.0,-999,-99.99,,,-99.99,,2013-09-28 12:12:00,
2013-09-28 06:22:00,63.0,-99.9,-100.00,NE,39,3.0,5.0,-999,-99.99,,,-99.99,,2013-09-28 12:22:00,
2013-09-28 06:42:00,63.0,-99.9,-100.00,NNE,24,4.0,8.0,-999,-99.99,,,-99.99,,2013-09-28 12:42:00,
2013-09-28 08:42:00,64.0,-99.9,-100.00,NNW,344,5.0,7.0,-999,-99.99,,,-99.99,,2013-09-28 14:42:00,
2013-09-28 08:52:00,65.0,-99.9,-100.00,North,349,1.0,4.0,-999,-99.99,,,-99.99,,2013-09-28 14:52:00,
2013-09-28 09:12:00,64.0,-99.9,-100.00,NNE,19,2.0,6.0,-999,-99.99,,,-99.99,,2013-09-28 15:12:00,
2013-09-28 11:24:00,70.0,-99.9,-100.00,NNE,17,3.0,7.0,-999,-99.99,,,-99.99,,2013-09-28 17:24:00,
2013-09-28 11:34:00,70.0,-99.9,-100.00,NNE,17,3.0,7.0,-999,-99.99,,,-99.99,,2013-09-28 17:34:00,
2013-09-28 11:43:00,70.0,-99.9,-100.00,NNE,17,3.0,7.0,-999,-99.99,,,-99.99,,2013-09-28 17:43:00,
2013-09-28 12:10:00,73.0,-99.9,-100.00,NNE,30,6.0,6.0,-999,-99.99,,,-99.99,,2013-09-28 18:10:00,
2013-09-28 12:42:00,73.0,-99.9,-100.00,NE,43,2.0,6.0,-999,-99.99,,,-99.99,,2013-09-28 18:42:00,
2013-09-28 12:52:00,73.0,-99.9,-100.00,NNE,30,6.0,6.0,-999,-99.99,,,-99.99,,2013-09-28 18:52:00,
2013-09-28 13:02:00,73.0,-99.9,-100.00,NNE,30,6.0,6.0,-999,-99.99,,,-99.99,,2013-09-28 19:02:00,
2013-09-28 14:10:00,77.0,-99.9,-100.00,NE,39,6.0,7.0,-999,-99.99,,,-99.99,,2013-09-28 20:10:00,
2013-09-28 14:53:00,77.0,-99.9,-100.00,NE,39,6.0,7.0,-999,-99.99,,,-99.99,,2013-09-28 20:53:00,
2013-09-28 15:02:00,77.0,-99.9,-100.00,NE,39,6.0,7.0,-999,-99.99,,,-99.99,,2013-09-28 21:02:00,
2013-09-28 16:10:00,77.0,-99.9,-100.00,North,8,2.0,5.0,-999,-99.99,,,-99.99,,2013-09-28 22:10:00,
2013-09-28 16:54:00,77.0,-99.9,-100.00,North,8,2.0,5.0,-999,-99.99,,,-99.99,,2013-09-28 22:54:00,
2013-09-28 17:03:00,77.0,-99.9,-100.00,North,8,2.0,5.0,-999,-99.99,,,-99.99,,2013-09-28 23:03:00,
2013-09-28 18:43:00,77.0,-99.9,-100.00,NE,52,7.0,7.0,-999,-99.99,,,-99.99,,2013-09-29 00:43:00,
2013-09-28 19:12:00,76.0,-99.9,-100.00,NNE,17,2.0,4.0,-999,-99.99,,,-99.99,,2013-09-29 01:12:00,
2013-09-28 19:22:00,76.0,-99.9,-100.00,NNE,17,2.0,4.0,-999,-99.99,,,-99.99,,2013-09-29 01:22:00,
2013-09-28 19:52:00,73.0,-99.9,-100.00,NE,41,6.0,6.0,-999,-99.99,,,-99.99,,2013-09-29 01:52:00,
2013-09-28 20:12:00,72.0,-99.9,-100.00,ENE,68,0.0,9.0,-999,-99.99,,,-99.99,,2013-09-29 02:12:00,
2013-09-28 20:22:00,72.0,-99.9,-100.00,ENE,68,0.0,9.0,-999,-99.99,,,-99.99,,2013-09-29 02:22:00,
2013-09-28 22:03:00,-999.0,-99.9,-100.00,NNW,347,0.0,1.0,-999,-99.99,,,-99.99,,2013-09-29 04:03:00,
2013-09-28 22:14:00,70.0,-99.9,-100.00,NNW,347,0.0,1.0,-999,-99.99,,,-99.99,,2013-09-29 04:14:00,
2013-09-28 22:24:00,70.0,-99.9,-100.00,NNW,347,0.0,1.0,-999,-99.99,,,-99.99,,2013-09-29 04:24:00,
2013-09-28 22:40:00,67.0,-99.9,-100.00,NNW,331,1.0,2.0,-999,-99.99,,,-99.99,,2013-09-29 04:40:00,
2013-09-28 23:22:00,67.0,-99.9,-100.00,NNW,331,1.0,2.0,-999,-99.99,,,-99.99,,2013-09-29 05:22:00,
2013-09-28 23:34:00,67.0,-99.9,-100.00,NNW,331,1.0,2.0,-999,-99.99,,,-99.99,,2013-09-29 05:34:00,